Weather in Gulistan

Uzbekistan     40°27′29″N   68°46′51″E
temp.,
°C
wind,
m/s
gust,
m/s
humid.,
%
clouds,
%
prec.,
mm/h
press.,
hPa
HPBL,
m
20 june, sun
sun2023:00+26nnw511250 0.0 1007235
02:00+22w46370 0.0 100898
05:00+19w34270 0.0 101055
08:00+24w34225 0.0 1010458
11:00+29wnw441962 0.0 10101080
14:00+33nw55150 0.0 10072031
17:00+33wnw66130 0.0 10062293
20:00+26w58220 0.0 1008112
21 june, mon
mon2123:00+22nw46260 0.0 100979
02:00+19w44290 0.0 101056
05:00+16wsw34310 0.0 101146
08:00+22w34230 0.0 1012444
11:00+29nw44170 0.0 10121091
14:00+33wnw34130 0.0 10101659
17:00+34nw24100 0.0 10091985
20:00+26w44210 0.0 100941
22 june, tue
tue2223:00+23nw22310 0.0 101011
02:00+21sw22340 0.0 101011
05:00+20wnw22361 0.0 101012
08:00+27wnw22270 0.0 1011332
11:00+33wnw43220 0.0 10101432
14:00+36nw54190 0.0 10092777
17:00+35nw65180 0.0 10082454
20:00+27nw511210 0.0 1009159
23 june, wed
wed2323:00+22nnw35250 0.0 101089
02:00+19w34310 0.0 101138
05:00+17w34350 0.0 101151
08:00+23w34280 0.0 1012425
11:00+30wnw44200 0.0 10111024
14:00+34nw44130 0.0 10091664
17:00+35wnw44120 0.0 10081966
20:00+28wsw33170 0.0 100919
24 june, thu
thu2423:00+23nw47230 0.0 100993
02:00+20wsw45280 0.0 101062
05:00+18w34320 0.0 101044
08:00+25w34250 0.0 1011379
11:00+32wnw44170 0.0 10091082
14:00+36nnw33120 0.0 10071989
17:00+37nw24100 0.0 10052641
20:00+29w46250 0.0 100561